ボク彗星

C/2026 AZ17 ( Bok )

English version
Home page
Updated on July 28, 2026

---------------------------------------------------------------------

・ プロフィール

発見日 2026年1月13日
発見光度 22.1等
発見者 Bok reflector at Kitt Peak

・ 写真集

・ 軌道要素

Epoch 2026 June 9.0 TT = JDT 2461200.5
T 2026 Nov. 23.22624 TT                                 Pike
q   2.4726639            (2000.0)            P               Q
z  +0.0154222      Peri.  146.91246     +0.50506285     +0.81082325
 +/-0.0000099      Node   149.97475     -0.86279281     +0.48320118
e   0.9618661      Incl.   36.23367     -0.02236251     -0.33027607
From 428 observations 2026 Jan. 13-July 5, mean residual 0".4.

・ 光度変化

        m1 = 8.5 + 5 logΔ + 15.0 log r

---------------------------------------------------------------------

軌道要素はM.P.E.C. 2026-N12に掲載されたものです。
光度グラフはComet for Windowsで作成したものです。

---------------------------------------------------------------------

Copyright(C) Seiichi Yoshida (comet@aerith.net). All rights reserved.